FW7087 Weather Reports


time (UTC)temp
F
wind
direction
speed
knots
gust
knots
rain 1hr
in
rain 24hr
in
rain mn
in
humidity
%
barometer
mb
20260506084004 76 166 0.0 5.2 0.00 0.00 0.00 88 1008.3
20260506083004 76 162 3.5 9.6 0.00 0.00 0.00 88 1008.2
20260506082004 76 153 0.0 4.3 0.00 0.00 0.00 88 1008.3
20260506073004 77 28 0.0 4.3 0.00 0.00 0.00 88 1008.7
20260506072004 77 20 0.0 4.3 0.00 0.00 0.00 88 1008.9
20260506071004 77 17 0.0 5.2 0.00 0.00 0.00 87 1009.1
20260506062005 77 140 0.0 3.5 0.00 0.00 0.00 86 1009.3
20260506061004 77 126 0.0 3.5 0.00 0.00 0.00 86 1009.3
20260506051004 78 349 0.0 6.1 0.00 0.00 0.00 85 1009.3
20260506045004 78 10 0.0 7.8 0.00 0.00 0.00 85 1009.3
20260506044004 78 164 0.0 8.7 0.00 0.00 0.00 85 1009.1
20260506043004 78 152 2.6 5.2 0.00 0.00 0.00 85 1009.0
20260506042004 78 20 1.7 6.1 0.00 0.00 0.00 84 1008.6
20260506041004 78 350 8.7 8.7 0.00 0.00 0.00 84 1008.6
20260506040004 78 104 0.0 7.8 0.00 0.00 0.00 84 1008.7
20260506035004 78 355 0.0 6.1 0.00 0.00 0.00 84 1008.7
20260506034004 78 17 0.0 9.6 0.00 0.00 0.00 83 1008.5
20260506033004 78 1 0.0 6.1 0.00 0.00 0.00 83 1008.5
20260506031004 78 162 0.0 7.8 0.00 0.00 0.00 83 1008.5
20260506030004 78 175 0.0 5.2 0.00 0.00 0.00 82 1008.3
20260506025004 79 42 1.7 4.3 0.00 0.00 0.00 82 1008.3
20260506024003 79 141 0.0 3.5 0.00 0.00 0.00 82 1008.3
20260506023003 79 164 0.0 0.9 0.00 0.00 0.00 82 1008.0
20260506021003 79 168 5.2 5.2 0.00 0.00 0.00 81 1007.7
20260506020003 79 167 0.0 2.6 0.00 0.00 0.00 81 1007.6
20260506015004 79 167 0.0 5.2 0.00 0.00 0.00 81 1007.5
20260506014004 79 165 0.0 4.3 0.00 0.00 0.00 81 1007.2
20260506013003 80 162 0.0 3.5 0.00 0.00 0.00 80 1007.1
20260506011003 80 349 0.0 5.2 0.00 0.00 0.00 80 1006.8
20260506005003 80 345 0.0 5.2 0.00 0.00 0.00 79 1006.7
20260506004003 81 343 0.0 4.3 0.00 0.00 0.00 78 1006.6
20260506003003 81 3 0.0 4.3 0.00 0.00 0.00 78 1006.5
20260506002005 81 12 0.0 5.2 0.00 0.00 0.00 77 1006.6
20260506001004 82 175 1.7 3.5 0.00 0.00 0.00 78 1006.5
20260506000004 82 175 0.0 0.9 0.00 0.00 0.00 77 1006.5
20260505234004 82 175 0.0 5.2 0.00 0.00 0.00 76 1006.5
20260505233004 82 170 0.0 3.5 0.00 0.00 0.00 76 1006.5
20260505232004 83 157 0.0 5.2 0.00 0.00 0.00 75 1006.5
20260505230004 83 164 0.0 4.3 0.00 0.00 0.00 75 1006.5
20260505225005 83 87 0.0 7.0 0.00 0.00 0.00 74 1006.6
20260505224004 84 189 0.0 7.8 0.00 0.00 0.00 73 1006.5
20260505222004 84 175 0.0 7.0 0.00 0.00 0.00 73 1006.4
20260505221004 84 157 1.7 7.0 0.00 0.00 0.00 73 1006.5
20260505215004 84 163 3.5 7.8 0.00 0.00 0.00 73 1006.5
20260505214004 84 163 0.9 9.6 0.00 0.00 0.00 73 1006.7
20260505213004 84 41 2.6 11.3 0.00 0.00 0.00 73 1006.9
20260505211004 84 145 0.0 8.7 0.00 0.00 0.00 73 1007.1
20260505210005 84 160 0.0 7.8 0.00 0.00 0.00 73 1007.2
20260505204004 84 162 1.7 7.8 0.00 0.00 0.00 72 1007.6
20260505202004 84 78 0.0 5.2 0.00 0.00 0.00 74 1007.8
20260505201004 84 111 0.0 7.8 0.00 0.00 0.00 73 1008.0
20260505200004 84 169 0.0 7.0 0.00 0.00 0.00 72 1008.1
20260505195005 84 149 3.5 5.2 0.00 0.00 0.00 74 1008.2
20260505194004 83 100 0.0 8.7 0.00 0.00 0.00 74 1008.3
20260505193004 83 157 4.3 9.6 0.00 0.00 0.00 76 1008.4
20260505192004 82 168 0.0 7.8 0.00 0.00 0.00 76 1008.4
20260505191004 82 161 0.9 8.7 0.00 0.00 0.00 75 1008.4
20260505190005 83 175 2.6 7.8 0.00 0.00 0.00 76 1008.5
20260505185004 82 144 7.0 8.7 0.00 0.00 0.00 77 1008.5
20260505184004 81 180 0.0 4.3 0.00 0.00 0.00 79 1008.7
20260505183005 81 170 3.5 5.2 0.00 0.00 0.00 78 1008.9
20260505180004 81 170 0.0 5.2 0.00 0.00 0.00 79 1009.1
20260505174003 81 116 1.7 10.4 0.00 0.00 0.00 77 1009.1
20260505173004 81 170 3.5 7.8 0.00 0.00 0.00 78 1009.1
20260505172004 81 163 7.8 9.6 0.00 0.00 0.00 78 1009.1
20260505171004 80 163 0.0 7.8 0.00 0.00 0.00 80 1009.3
20260505170004 80 158 0.0 8.7 0.00 0.00 0.00 82 1009.4
20260505165003 79 170 0.0 8.7 0.00 0.00 0.00 81 1009.4
20260505164003 79 136 3.5 6.1 0.00 0.00 0.00 81 1009.3
20260505163004 79 68 0.0 7.0 0.00 0.00 0.00 82 1009.5
20260505162003 78 164 1.7 5.2 0.00 0.00 0.00 82 1009.6
20260505161004 78 169 3.5 7.0 0.00 0.00 0.00 83 1009.6
20260505152003 76 129 0.0 7.0 0.00 0.00 0.00 84 1009.2
20260505151003 76 167 0.0 4.3 0.00 0.00 0.00 85 1009.3
20260505125004 72 175 0.0 2.6 0.00 0.00 0.00 89 1009.2
20260505124003 72 175 0.0 4.3 0.00 0.00 0.00 89 1008.8
20260505123004 72 175 4.3 5.2 0.00 0.00 0.00 89 1008.5
20260505122004 72 175 0.0 7.8 0.00 0.00 0.00 89 1008.5
20260505114004 71 2 0.0 2.6 0.00 0.00 0.00 89 1008.5
20260505113005 71 149 4.3 4.3 0.00 0.00 0.00 89 1008.3
20260505111005 71 154 0.9 5.2 0.00 0.00 0.00 89 1008.5
20260505102004 71 2 2.6 4.3 0.00 0.00 0.00 89 1008.4
20260505100004 71 175 0.0 3.5 0.00 0.00 0.00 89 1008.7
20260505095004 71 175 0.0 3.5 0.00 0.00 0.00 89 1008.7
20260505094004 71 45 0.0 3.5 0.00 0.00 0.00 88 1008.6
20260505093004 71 166 0.0 3.5 0.00 0.00 0.00 89 1008.6
20260505092004 71 166 0.0 4.3 0.00 0.00 0.00 88 1008.8
20260505091004 71 166 0.0 5.2 0.00 0.00 0.00 88 1009.0
20260505090004 71 163 0.0 0.9 0.00 0.00 0.00 88 1008.9